Probability
0 0 0 0 0 0 0 0 0 0 0 0 0 0 0 0 0 0 0 0 0 0 0 0 0 0 0 0 0 0 0 0 0 0 0 0 0 0
0 0 0 0 0 0 0 0 0 0 0 0 0 0 0 0 0 0 0 0 0 0 0 0 0 0 0 0 0 0 0 0 0 0 0 0 0 0
0 0 0 0 0 0 0 0 0 0 0 0 0 0 0 0 0 0 0 0 0 0 0 0 0 0 0 0 0 0 0 0 0 0 0 0 0 0
0 0 0 0 0 0 0 0 0 0 0 0 0 0 0 0 0 0 0 0 0 0 0 0 0 0 0 0 0 0 0 0 0 0 0 0 0 0
0 0 0 0 0 0 0 0 0 0 0 0 0 0 0 0 0 0 0 0 0 0 0 0 0 0 0 0 0 0 0 0 0 0 0 0 0 0
0 0 0 0 0 0 0 0 0 0 0 0 0 0 0 0 0 0 0 0 0 0 0 0 0 0 0 0 0 0 0 0 0 0 0 0 0 0
0 0 0 0 0 0 0 0 0 0 0 0 0 0 0 0 0 0 0 0 0 0 0 0 0 0 0 0 0 0 0 0 0 0 0 0 0 0
0 0 0 0 0 0 0 0 0 0 0 0 0 0 0 0 0 0 0 0 0 0 0 0 0 0 0 0 0 0 0 0 0 0 0 0 0 0
0 0 0 0 0 0 0 0 0 0 0 0 0 0 0 0 0 0 0 0 0 0 0 0 0 0 0 0 0 0 0 0 0 0 0 0 0 0
0 0 0 0 0 0 0 0 0 0 0 0 0 0 0 0 0 0 0 0 0 0 0 0 0 0 0 0 0 0 0 0 0 0 0 0 0 0
0 0 0 0 0 0 0 0 0 0 0 0 0 0 0 0 0 0 0 0 0 0 0 0 0 0 0 0 0 0 0 0 0 0 0 0 0 0
0 0 0 0 0 0 0 0 0 0 0 0 0 0 0 0 0 0 0 0 0 0 0 0 0 0 0 0 0 0 0 0 0 0 0 0 0 0
0 0 0 0 0 0 0 0 0 0 0 0 0 0 0 0 0 0 0 0 0 0 0 0 0 0 0 0 0 0 0 0 0 0 0 0 0 0
0 0 0 0 0 0 0 0 0 0 0 0 0 0 0 0 0 0 0 0 0 0 0 0 0 0 0 0 0 0 0 0 0 0 0 0 0 0
0 0 0 0 0 0 0 0 0 0 0 0 0 0 0 0 0 0 0 0 0 0 0 0 0 0 0 0 0 0 0 0 0 0 0 0 0 0
0 0 0 0 0 0 0 0 0 0 0 0 0 0 0 0 0 0 0 0 0 0 0 0 0 0 0 0 0 0 0 0 0 0 0 0 0 0
0 0 0 0 0 0 0 0 0 0 0 0 0 0 0 0 0 0 0 0 0 0 0 0 0 0 0 0 0 0 0 0 0 0 0 0 0 0
0 0 0 0 0 0 1 0 0 0 0 0 0 0 0 0 0 0 0 0 0 0 0 0 0 0 0 0 0 0 0 0 0 0 0 0 0 0
0 0 0 0 0 0 0 0 0 0 0 0 0 0 0 0 0 0 0 0 0 0 0 0 0 0 0 0 0 0 0 0 0 0 0 0 0 0
0 0 0 0 0 0 0 0 0 0 0 0 0 0 0 0 0 0 0 0 0 0 0 0 0 0 0 0 0 0 0 0 0 0 0 0 0 0
0 0 0 0 0 0 0 0 0 0 0 0 0 0 0 0 0 0 0 0 0 0 0 0 0 0 0 0 0 0 0 0 0 0 0 0 0 0
0 0 0 0 0 0 0 0 0 0 0 0 0 0 0 0 0 0 0 0 0 0 0 0 0 0 0 0 0 0 0 0 0 0 0 0 0 0
0 0 0 0 0 0 0 0 0 0 0 0 0 0 0 0 0 0 0 0 0 0 0 0 0 0 0 0 0 0 0 0 0 0 0 0 0 0
Wind_Speed
4 4 4 3 3 2 2 3 3 4 4 3 2 2 1 1 2 2 2 2 3 3 4 4 4 4 3 3 4 4 4 4 5 5 6 6 7 6
3 4 4 3 3 3 3 3 3 4 5 2 3 2 2 2 3 2 3 4 4 4 4 5 5 5 5 5 4 4 4 4 5 5 6 6 6 6
4 4 5 5 4 3 3 3 3 3 5 4 2 2 3 3 3 2 3 3 4 6 6 6 5 6 6 6 5 5 5 5 5 6 5 6 6 6
5 5 6 5 5 4 4 5 4 4 5 6 4 3 4 4 3 3 3 3 3 6 7 7 6 6 7 7 6 6 5 5 6 6 6 6 6 6
6 6 6 6 6 5 5 5 5 4 4 5 5 3 3 3 3 3 4 4 4 5 7 7 7 7 7 8 7 7 6 6 6 6 6 6 6 7
6 6 7 7 7 6 6 6 5 5 5 5 4 3 3 3 3 3 4 4 4 3 4 5 7 8 8 8 8 8 8 7 7 7 7 7 7 7
7 7 8 9 10 9 7 6 6 6 5 5 5 4 4 4 5 4 5 4 4 3 3 4 4 4 5 8 9 9 9 9 9 8 8 8 8 8
8 8 8 9 10 12 12 12 10 9 8 7 6 7 7 6 5 4 4 4 5 3 3 5 4 5 5 5 7 9 9 9 9 9 9 9 9 8
8 7 7 8 9 8 10 11 12 14 13 10 9 10 8 7 6 6 6 6 5 4 3 4 3 5 4 5 9 9 9 10 10 9 9 9 9 9
8 8 9 8 8 9 8 9 9 10 12 10 10 10 9 8 8 8 7 5 3 3 3 4 3 4 4 4 8 9 9 10 10 10 9 9 9 9
8 8 9 9 11 11 9 9 9 9 10 12 12 11 12 12 9 5 5 4 4 4 3 3 3 2 3 4 5 9 9 10 10 10 10 10 9 9
7 7 10 11 12 12 9 9 10 9 6 6 7 8 9 10 11 9 7 6 4 4 4 3 2 1 2 3 3 3 5 8 10 10 10 10 9 6
6 6 6 11 13 13 12 10 11 9 6 6 6 5 5 5 6 6 6 7 6 5 4 3 2 2 2 2 2 2 3 3 4 6 9 10 10 7
7 6 7 11 12 13 11 10 11 9 5 5 5 5 5 5 5 5 5 5 5 5 5 4 3 3 3 3 3 2 2 3 3 4 4 7 8 10
7 10 11 11 11 9 10 11 9 6 5 6 6 6 5 4 3 3 3 3 3 3 4 4 4 3 3 3 3 3 3 3 3 3 4 4 5 5
6 8 10 10 9 9 8 6 5 5 5 5 4 4 3 3 4 4 4 3 3 3 3 4 4 5 4 4 4 4 3 3 3 3 3 4 4 4
5 4 4 4 4 4 4 4 4 4 4 4 4 4 4 4 4 4 4 3 4 4 3 3 3 3 4 4 4 5 4 4 3 3 3 4 4 5
5 4 4 4 4 4 4 4 4 4 4 4 4 5 5 5 4 4 4 4 4 4 4 3 2 1 1 3 5 5 4 4 3 3 3 4 5 4
4 4 4 4 4 4 4 4 4 4 3 3 4 4 4 4 4 4 4 4 4 4 4 3 4 4 4 5 4 4 4 3 3 3 4 4 5 5
3 4 4 4 4 3 3 3 3 3 3 3 3 4 4 5 5 5 5 5 5 4 4 4 4 5 6 5 3 3 5 4 4 4 4 3 4 5
3 3 3 3 3 3 3 3 3 3 3 3 3 3 4 4 4 4 4 6 5 4 5 5 4 4 1 1 2 3 3 4 5 4 3 3 3 3
3 3 3 3 2 2 2 2 2 2 3 3 3 3 3 3 4 4 4 4 4 4 4 3 2 2 3 4 5 4 3 2 2 4 5 6 4 4
3 3 3 3 2 2 2 2 2 2 2 2 2 2 3 3 3 3 3 4 4 4 3 3 2 2 3 4 4 3 3 3 2 2 3 4 6 7
Wind_Direction
235 240 245 242 237 232 219 202 215 254 263 243 237 232 226 231 237 228 222 226 232 226 233 231 224 216 222 227 230 231 231 229 232 237 235 232 238 246
238 240 244 240 235 226 223 229 223 230 255 243 243 242 235 249 260 253 233 231 225 223 227 229 222 218 221 225 226 229 227 226 231 237 238 234 236 243
248 244 244 237 233 225 222 225 227 226 249 260 252 223 222 242 251 250 251 231 225 225 225 226 230 225 219 220 220 225 231 230 230 235 237 234 234 240
250 249 249 241 234 227 223 228 231 231 238 248 247 232 225 222 234 239 263 248 231 232 229 224 226 229 224 224 220 225 231 232 231 232 233 238 237 239
252 249 250 240 241 234 228 231 233 239 239 233 242 241 238 223 227 251 260 248 236 237 234 228 227 231 230 228 227 229 231 234 234 232 232 235 243 244
257 254 252 243 239 236 233 231 230 233 233 228 236 239 239 227 213 231 258 244 234 235 244 242 238 239 239 234 233 233 232 233 235 235 234 236 240 247
260 255 254 251 247 243 239 231 226 229 229 225 231 239 235 221 222 225 241 241 236 226 232 237 233 233 235 237 234 233 234 235 235 236 237 237 240 245
262 261 261 254 250 252 249 243 235 228 229 228 232 229 232 229 228 220 229 231 244 217 214 242 224 233 234 230 235 234 235 236 236 236 238 240 241 243
255 260 264 261 253 246 249 249 243 240 236 232 229 231 229 223 218 221 227 230 240 210 203 244 231 239 242 245 240 236 235 236 238 238 240 242 242 242
253 254 257 255 250 248 247 247 243 239 237 235 234 234 229 222 218 222 229 241 261 226 198 236 236 240 247 239 238 235 240 238 238 240 240 240 242 243
259 259 258 252 256 254 249 248 249 248 243 239 242 242 235 230 224 218 223 217 243 240 205 218 235 251 255 246 243 241 239 239 240 240 241 241 243 243
262 258 257 258 258 253 243 240 244 248 238 236 238 238 230 223 223 218 215 215 227 237 207 200 214 215 265 256 242 242 237 240 244 245 243 242 243 235
265 261 256 263 264 259 253 242 244 250 235 228 227 224 220 216 214 213 216 211 213 227 206 183 195 203 225 267 272 247 231 234 238 243 241 242 241 235
266 265 262 269 271 267 256 247 248 250 234 223 222 220 217 217 213 209 211 211 218 220 206 196 198 204 211 243 259 263 261 245 234 235 235 246 244 245
269 270 272 272 274 269 257 248 241 233 228 225 223 222 215 208 198 200 200 193 205 226 221 216 205 207 217 233 242 251 270 265 247 236 230 233 234 231
275 275 275 273 271 266 256 245 236 228 224 225 221 217 203 199 202 197 197 187 199 235 241 221 212 206 226 237 236 248 240 245 248 250 252 244 236 228
285 279 271 274 268 259 248 237 231 226 227 221 213 215 210 204 204 198 198 198 210 220 222 221 220 219 223 224 237 241 242 250 249 249 256 262 250 234
291 270 269 268 266 261 249 243 236 228 220 211 209 209 209 206 203 199 201 201 205 215 213 204 196 219 265 267 239 234 235 243 248 245 250 257 259 247
276 266 265 266 266 260 248 240 240 237 227 215 210 208 207 205 200 200 200 201 208 213 213 206 202 202 226 247 262 232 228 239 241 244 246 248 254 256
269 265 269 270 267 262 255 245 241 236 223 217 214 208 203 201 200 202 202 203 209 212 216 213 212 212 220 229 239 260 240 232 233 245 257 266 270 280
287 281 275 276 277 273 266 252 239 231 221 214 213 211 204 199 202 204 203 210 216 214 215 220 222 219 213 201 236 255 253 248 245 242 244 256 273 278
302 300 296 292 285 279 278 271 259 238 221 216 215 212 210 203 201 202 202 206 214 214 219 220 197 201 211 222 232 243 259 271 272 279 272 254 235 235
313 306 302 297 291 286 278 273 269 258 237 219 215 211 209 212 207 203 208 210 204 201 204 210 216 219 222 219 226 237 243 259 272 292 298 290 276 273